This demonstration page uses our WeatherBlox Daily Observations layout. Learn more.

Left ArrowRight Arrow

39.92423, -83.80882

Hourly Observations for March 5, 2022

Temp ( °F °C ) Dew Point ( °F °C ) Humidity (%) Winds ( mph kmh ) Pressure ( in mb ) Visibility ( mi km ) Precip ( " mm )
12:56 am 00:56 Clear 38 3.3 18 -7.8 44 44 ESE 13 20 30.25 1024 10 16 0.00 0.00
1:56 am 01:56 Clear 38 3.3 18 -7.8 44 44 E 12 19 30.24 1024 10 16 0.00 0.00
2:56 am 02:56 Clear 38 3.3 18 -7.8 44 44 ESE 9 15 30.22 1023 10 16 0.00 0.00
3:56 am 03:56 Clear 38 3.3 18 -7.8 44 44 E 12 19 30.20 1023 10 16 0.00 0.00
4:56 am 04:56 Clear 39 3.9 19 -7.2 45 45 ESE 10 17 30.19 1022 10 16 0.00 0.00
5:56 am 05:56 Mostly Clear 39 3.9 20 -6.7 46 46 ESE 10 17 30.19 1022 10 16 0.00 0.00
6:56 am 06:56 Clear 40 4.4 20 -6.7 45 45 ESE 10 17 30.19 1022 10 16 0.00 0.00
7:56 am 07:56 Mostly Sunny 40 4.4 22 -5.6 49 49 SE 9 15 30.19 1023 10 16 0.00 0.00
8:56 am 08:56 Sunny 48 8.9 27 -2.8 44 44 SSE 9 15 30.19 1022 10 16 0.00 0.00
9:56 am 09:56 Sunny 56 13.3 35 1.7 46 46 S 9 15 30.17 1022 10 16 0.00 0.00
10:56 am 10:56 Sunny 64 17.8 41 5 43 43 SSW 16 26 30.13 1020 10 16 0.00 0.00
11:56 am 11:56 Sunny 68 20 42 5.6 39 39 SW 18 30 30.11 1020 10 16 0.00 0.00
12:56 pm 12:56 Sunny 72 22.2 42 5.6 34 34 SW 17 28 30.07 1018 10 16 0.00 0.00
1:56 pm 13:56 Sunny 74 23.3 42 5.6 32 32 SSW 21 33 30.03 1017 10 16 0.00 0.00
2:56 pm 14:56 Sunny 74 23.3 41 5 31 31 SW 20 31 30.01 1016 10 16 0.00 0.00
3:56 pm 15:56 Sunny 74 23.3 37 2.8 26 26 SW 25 41 29.99 1016 10 16 0.00 0.00
4:56 pm 16:56 Sunny 73 22.8 38 3.3 28 28 SSW 16 26 29.99 1016 10 16 0.00 0.00
5:56 pm 17:56 Sunny 70 21.1 38 3.3 31 31 SSW 16 26 29.99 1016 10 16 0.00 0.00
6:56 pm 18:56 Clear 66 18.9 46 7.8 49 49 SSW 15 24 30.00 1016 10 16 0.00 0.00
7:56 pm 19:56 Cloudy 66 18.9 48 8.9 52 52 SSW 16 26 30.00 1016 10 16 0.00 0.00
8:56 pm 20:56 Cloudy 65 18.3 49 9.4 56 56 SSW 14 22 29.99 1016 10 16 0.00 0.00
9:56 pm 21:56 Cloudy 66 18.9 49 9.4 54 54 SSW 15 24 29.97 1015 10 16 0.00 0.00
10:56 pm 22:56 Cloudy 66 18.9 50 10 56 56 SSW 13 20 29.95 1014 10 16 0.00 0.00
11:56 pm 23:56 Cloudy 66 18.9 50 10 56 56 SSW 18 30 29.93 1014 10 16 0.00 0.00

Powered by AerisWeather